User: anonymous   Login
Location: Unspecified
(0.0000°N, 0.0000°E)
Time: 19:03:12
(UTC+00:00)
Language:

GS-1 - Orbit

View from above orbital plane
View from above orbital plane
View from above satellite
View from above satellite

Ground track
Ground track

The orbit is defined by the following mean orbital elements,

1 56372U          26142.74951110 +.00000000 +00000-0 +00000-0 0 00009
2 56372   2.6612  80.1187 0004085 279.8154 239.0757  1.00281652    08
Epoch (UTC): 22 May 2026 17:59:17
Eccentricity: 0.0004085
inclination: 2.6612°
perigee height: 35767 km
apogee height: 35801 km
right ascension of ascending node: 80.1187°
argument of perigee: 279.8154°
revolutions per day: 1.00281652
mean anomaly at epoch: 239.0757°

The dashed part of the orbit path shows where the satellite is in the earth's shadow,  

DLR